Location: Cluj-Napoca
(46.7712°N, 23.6236°E)
Time: 18:05:25
(UTC+03:00)

ISS - Pass Details

Date: 31 May 2020
Orbit: 417 x 420 km, 51.6° (Epoch: 26 May)

Event Time Altitude Azimuth Distance (km) Brightness Sun altitude
Rises 21:48:10 0° 295° (WNW) 2,367 1.9 -5.8°
Reaches altitude 10° 21:50:17 10° 293° (WNW) 1,501 0.5 -6.1°
Maximum altitude 21:53:38 71° 210° (SSW) 446 -3.7 -6.5°
Drops below altitude 10° 21:56:58 10° 126° (SE) 1,495 -1.6 -6.9°
Enters shadow 21:57:08 - 125° (SE) 1,563 -1.5 -7.0°
